Погода в Анисимове

Россия / Алтайский край     54°01′21″N   83°37′13″E
темп.,
°C
ветер,
м/с
пор.,
м/с
влажн.,
%
обл.,
%
осадки,
мм/ч
давл.,
гПа
погр.,
м
25 октября, пн
пн2501:00+6ююз6137374 0.0 1023424
04:00+6ююз51374100 0.0 1022451
07:00+6ююз6137363 0.0 1020418
10:00+7ююз71667100 0.0 1019594
13:00+10юз81652100 0.0 1018866
16:00+11юз81547100 0.0 1017917
19:00+9юз5125337 0.0 1018289
22:00+7юз3863100 0.0 1019158
26 октября, вт
вт2601:00+5ююз346981 0.0 101967
04:00+5ю337086 0.0 101738
07:00+5ююв3770100 0.0 1016131
10:00+6ю51261100 0.0 1014301
13:00+10ю61556100 0.0 1010673
16:00+12ююз81338100 0.0 1007874
19:00+11юз71540100 0.0 1007492
22:00+9з61150100 0.0 1008350
27 октября, ср
ср2701:00+5з61279100 0.1 10141141
04:00+1зсз7126182 0.1 1020999
07:00−1з511618 0.1 1024644
10:000зюз58625 0.0 1027669
13:00+2зюз45455 0.0 1027927
16:00+3зюз463658 0.0 10261164
19:00+1зюз364568 0.0 1027202
22:00−1зюз35525 0.0 102885
28 октября, чт
чт2801:00−2зюз355646 0.0 102996
04:00−2зюз235990 0.0 102959
07:00−3юз2359100 0.0 102949
10:00−1ююз355168 0.0 1030187
13:00+3ююз4538100 0.0 1029684
16:00+3ююз353786 0.0 1028751
19:00−1ю354736 0.0 102870
22:00−2ю495146 0.0 1027147
29 октября, пт
пт2901:00−2ю4105493 0.0 1026182
04:00−1ю41057100 0.0 1025258
07:00−1ю5127592 0.0 1023294
10:00+1ю61484100 0.0 1022512
13:00+5ююз71556100 0.0 1020890
16:00+6юз81442100 0.1 10201021
19:00+4юз6134395 0.1 1021345
22:00+3юз51149100 0.0 1022250